Theta_e
304 303 302 300 301 301 298 298 299 299 299 302 306 306 307 310 315 323 323 318 322 323 317 318 320 333 331 331 330 330 332 333 333 333 332 330 330 328 327 325 325 326 325 325
303 303 301 300 301 300 300 296 296 299 302 302 306 309 311 308 317 321 323 322 324 318 316 314 316 320 323 331 330 329 332 333 332 332 332 331 331 329 329 327 327 326 326 326
304 303 302 301 303 303 302 301 299 299 304 306 310 312 313 314 318 320 321 321 319 317 314 311 309 309 315 319 324 327 330 331 332 331 331 331 331 330 329 328 328 326 326 327
305 304 304 304 303 304 304 301 301 301 304 308 309 316 317 318 320 321 319 317 312 311 309 308 307 305 307 310 317 324 327 330 331 331 331 331 331 330 329 329 328 328 327 327
306 307 306 305 304 303 303 301 302 303 307 310 313 316 319 319 321 318 314 309 307 304 304 303 302 302 305 307 312 322 323 318 330 331 330 330 330 330 330 330 329 329 329 328
306 305 304 303 303 304 302 305 305 306 307 312 310 316 319 319 320 314 308 306 304 302 301 301 300 300 301 306 310 313 319 314 314 329 328 328 329 329 329 329 330 330 330 330
303 308 308 307 306 306 307 310 310 311 312 311 315 317 309 309 314 309 306 304 303 301 300 300 300 300 299 301 303 308 314 311 307 314 325 328 328 328 329 328 328 329 329 329
303 309 308 309 312 312 310 310 313 317 316 315 311 312 308 303 302 300 299 299 299 299 299 298 298 298 298 299 300 300 305 309 306 307 311 322 326 324 325 324 324 323 324 324
305 309 308 308 307 311 313 312 310 313 308 310 310 308 308 304 302 300 299 298 297 296 296 296 296 296 296 298 299 299 301 301 304 309 305 309 315 317 316 317 318 319 317 317
306 308 308 306 308 309 310 308 313 314 315 313 314 312 311 308 304 302 300 298 296 296 295 295 294 295 295 296 297 299 299 301 299 302 303 301 304 306 306 309 313 316 313 313
306 308 310 309 311 311 310 311 310 309 312 314 314 311 307 307 306 304 301 298 297 296 295 294 294 294 294 295 296 295 299 300 302 300 302 303 303 305 306 306 306 309 311 310
305 307 310 311 309 309 309 309 308 313 311 310 309 308 302 299 302 304 302 300 298 297 295 295 294 294 294 294 295 296 296 298 299 300 301 303 303 307 307 304 302 304 305 309
304 303 306 309 307 307 307 305 305 306 309 309 311 308 301 297 296 296 300 299 298 297 295 295 294 294 293 293 294 295 296 296 297 298 299 300 300 303 303 303 303 303 305 307
303 305 304 308 307 304 303 304 304 303 305 308 308 307 303 299 297 295 295 296 295 296 295 294 293 292 292 292 292 292 292 294 295 295 296 298 297 298 298 298 297 298 299 301
301 303 304 302 301 302 301 300 303 302 296 303 307 306 303 300 297 295 293 293 294 294 293 292 291 290 290 290 290 291 291 292 292 292 292 291 292 293 295 296 296 295 295 295
297 305 298 300 298 301 301 299 299 301 300 301 302 303 299 297 296 295 294 294 294 293 292 290 289 289 289 289 289 289 290 290 291 290 290 290 291 291 291 292 292 292 291 292
293 293 295 301 293 295 301 299 297 300 299 298 301 301 299 300 299 297 296 294 293 293 292 290 289 288 288 288 288 288 288 289 290 289 288 289 289 289 289 289 290 289 289 290
288 286 285 294 291 299 301 296 294 298 297 299 299 298 297 296 294 293 293 294 292 292 290 289 288 287 288 288 288 288 288 288 288 288 288 288 288 288 288 288 288 288 288 288
291 287 287 290 281 293 293 293 294 296 298 295 297 296 295 295 295 293 291 291 290 290 289 289 288 288 287 288 288 287 287 287 287 287 287 287 287 288 288 288 287 287 287 286
290 288 290 278 283 287 290 290 291 291 298 293 296 296 296 296 298 295 291 290 288 289 289 289 288 288 288 287 288 288 287 287 287 287 287 287 287 287 287 287 287 286 287 286
281 280 281 278 278 284 287 288 290 293 295 292 293 295 296 294 293 291 290 289 289 288 288 288 288 288 287 287 287 287 287 287 286 287 287 287 287 287 287 287 287 286 286 285
285 280 278 272 278 285 286 290 291 291 290 292 293 292 290 289 289 289 288 288 289 289 288 288 288 288 287 287 287 287 287 286 287 287 287 287 287 287 287 286 286 285 284 284
286 284 283 285 285 285 286 290 289 288 290 290 290 288 288 287 284 285 283 282 285 287 287 288 288 288 288 287 287 287 287 287 287 287 287 287 287 286 286 286 285 284 284 283
283 280 283 284 284 284 287 286 288 289 289 287 287 286 286 284 280 281 279 283 286 288 288 289 289 289 289 288 288 287 287 287 287 287 286 286 286 286 286 285 285 284 284 283
283 282 281 282 282 279 280 280 282 283 281 282 281 282 282 283 282 281 279 283 286 287 287 287 287 287 288 288 288 287 287 287 287 286 286 286 286 285 284 284 284 284 283 283
281 284 285 286 286 284 284 277 276 279 280 277 280 281 283 285 282 284 283 285 286 287 287 288 287 286 286 287 288 288 288 287 287 286 286 286 286 285 285 284 283 283 283 283
Wind_Speed
9 8 17 25 22 10 6 9 9 6 15 9 14 18 21 18 14 12 8 5 1 3 3 7 4 14 27 34 27 35 34 36 36 32 31 30 30 32 30 29 28 26 26 24
5 21 26 15 14 18 13 7 10 12 11 11 13 14 11 16 15 15 12 7 7 4 2 5 6 13 15 23 31 33 37 38 39 34 31 28 28 33 32 29 29 29 27 26
16 24 14 20 17 20 21 19 17 12 3 16 4 10 11 13 11 9 11 8 6 6 1 3 9 12 9 9 10 22 35 37 37 39 35 28 29 24 28 31 30 30 29 28
13 19 16 14 24 18 20 24 18 15 6 10 14 5 9 17 14 13 8 9 9 7 5 3 5 13 9 4 1 8 9 23 32 37 34 33 27 19 23 28 31 31 31 29
6 6 15 15 21 22 15 15 22 18 16 15 15 4 4 14 16 8 9 9 8 9 3 4 8 8 10 11 5 5 5 12 30 33 29 30 26 20 24 27 29 31 30 30
13 5 12 8 14 20 13 10 16 11 9 7 13 9 7 13 12 11 8 10 8 12 4 5 8 8 15 13 13 9 6 6 3 29 32 31 30 25 19 23 27 28 24 27
5 3 2 7 11 15 16 7 6 7 5 5 8 14 3 8 6 14 13 9 8 9 7 6 7 11 13 18 17 12 11 1 13 10 25 32 27 25 26 20 17 17 16 17
3 3 2 7 6 4 13 9 3 6 6 4 4 4 3 6 14 15 14 11 9 9 10 8 9 8 14 20 18 14 15 14 10 10 12 18 18 20 23 21 18 17 18 18
4 3 2 3 2 2 6 7 1 2 2 4 3 4 2 7 12 13 11 11 10 9 10 8 10 13 12 22 17 17 19 18 12 12 12 13 12 12 13 17 14 15 14 15
4 5 3 3 3 6 2 5 3 3 4 4 5 7 3 4 9 9 10 10 8 8 11 8 10 13 15 18 18 17 18 19 20 13 17 13 17 16 14 16 15 13 11 10
5 3 5 0 6 2 3 2 2 2 3 3 4 4 7 3 8 10 8 9 7 7 10 6 8 11 13 16 19 16 20 18 20 17 17 20 19 19 19 18 12 11 10 9
3 3 3 3 3 1 3 4 3 1 2 4 3 3 8 8 7 8 9 10 7 6 7 7 9 8 12 12 15 16 19 18 16 16 16 18 20 20 20 15 13 12 13 14
7 4 3 6 3 3 6 8 5 5 3 7 3 3 5 7 10 8 9 8 5 7 8 7 5 7 6 9 11 12 13 13 14 11 14 17 15 17 14 11 9 8 11 13
2 6 4 6 4 4 6 18 10 4 4 8 8 7 6 7 9 8 7 7 6 6 7 4 4 6 6 8 9 9 8 7 8 8 10 13 12 13 10 9 8 8 9 12
4 7 9 9 6 9 17 18 20 12 2 6 8 10 6 6 6 5 5 5 6 6 5 3 4 5 7 9 9 8 8 7 7 8 10 12 12 13 13 13 12 10 11 13
8 3 5 6 11 15 17 23 18 14 10 11 11 10 4 6 6 7 6 5 5 5 5 5 5 6 7 7 8 8 9 9 9 11 13 13 13 14 15 16 14 11 12 13
5 3 5 5 9 6 10 13 13 5 8 2 6 3 2 8 9 7 6 5 6 5 5 5 5 6 6 5 6 7 9 10 12 13 13 14 14 15 15 14 15 14 15 15
1 3 2 2 6 7 5 8 6 8 11 11 10 6 7 7 5 7 7 6 7 6 5 6 7 7 6 7 8 9 9 9 12 12 13 11 12 14 14 14 14 15 15 16
4 3 4 4 2 2 4 6 5 5 6 6 5 5 5 3 3 7 6 7 5 5 6 7 7 8 8 7 8 8 9 10 11 11 11 10 10 12 11 12 13 14 13 15
5 7 4 4 6 3 3 5 3 3 4 6 4 4 3 5 4 2 3 4 7 9 8 7 7 7 7 7 7 6 6 6 8 8 9 9 9 9 10 11 10 12 10 12
6 5 5 3 3 5 5 6 3 5 3 3 1 3 3 3 1 3 3 5 6 8 8 8 6 5 5 5 6 5 5 5 5 6 6 6 7 7 7 7 7 8 8 8
2 3 0 3 5 3 3 5 2 2 2 2 2 2 4 6 4 3 5 5 7 7 6 5 5 5 4 3 3 3 2 2 3 3 3 4 4 4 4 4 5 6 6 7
3 4 3 4 5 4 4 1 1 4 2 1 4 4 5 6 1 3 2 4 4 5 4 4 3 2 1 0 0 2 2 1 2 3 2 2 2 2 2 2 3 4 5 4
3 2 0 4 3 4 1 3 1 3 3 3 5 5 5 5 4 1 1 2 4 5 6 5 4 4 4 4 4 3 3 4 4 4 5 5 5 4 4 5 4 4 5 5
3 2 2 4 5 5 4 4 2 3 3 3 4 2 3 6 3 3 2 2 2 0 2 4 5 7 6 6 5 6 7 6 7 8 8 8 8 8 8 8 8 7 7 7
4 5 3 4 3 4 5 3 1 2 1 1 3 2 3 2 4 3 2 2 1 1 0 1 3 4 4 6 6 7 8 10 10 12 12 12 12 12 12 11 11 11 9 10
Wind_Direction
187 203 214 214 211 219 199 226 255 237 232 242 237 238 239 252 261 209 203 210 9 69 350 51 50 162 172 177 184 185 187 189 189 187 185 190 193 198 198 198 200 198 197 198
211 225 219 211 216 215 219 206 238 264 269 226 249 260 248 237 248 214 204 208 143 120 299 30 61 97 106 177 185 188 192 191 192 188 188 191 195 197 198 201 202 202 200 199
216 237 209 201 213 213 213 214 222 224 303 226 191 267 240 258 239 209 204 189 115 130 119 16 50 61 89 107 152 190 188 193 190 195 191 190 192 195 197 206 207 208 206 205
241 257 225 207 213 194 216 211 222 228 237 243 177 255 214 212 188 194 152 143 122 71 59 25 64 59 71 55 85 149 185 201 190 186 181 187 185 184 198 205 211 214 211 212
248 227 193 206 211 202 236 194 207 210 227 234 191 231 171 174 182 167 129 112 106 90 45 41 40 59 66 60 68 210 210 320 196 192 185 184 184 192 199 205 214 216 214 217
265 292 186 200 196 197 193 198 196 217 252 226 214 211 165 177 177 144 131 122 112 99 66 48 48 54 61 71 66 81 170 315 297 201 196 200 205 201 205 217 216 215 216 221
311 175 191 233 188 202 199 173 173 195 173 240 198 195 15 334 196 143 130 103 94 97 76 42 36 46 48 63 67 77 84 156 33 135 188 186 197 195 199 199 202 196 201 208
317 333 217 169 231 196 191 219 233 194 172 136 339 80 30 36 77 89 98 111 100 96 82 43 41 46 60 58 57 66 82 71 46 75 106 153 164 161 167 169 158 168 170 166
305 285 254 317 307 187 147 204 187 237 25 101 115 98 125 89 80 89 90 86 78 73 72 57 47 42 51 65 61 59 74 72 66 73 73 87 118 133 134 135 144 149 153 157
285 294 352 350 279 68 262 131 187 216 131 86 83 65 22 89 106 99 96 90 88 91 72 49 33 39 51 75 76 70 75 75 75 80 81 89 102 102 110 121 119 122 135 135
293 272 313 227 22 5 339 3 10 121 16 122 122 75 341 66 120 125 120 121 112 82 93 82 51 45 54 72 81 80 80 75 76 74 78 76 82 82 77 79 91 108 118 111
302 320 27 343 264 325 332 321 260 69 83 41 69 68 10 52 82 112 121 111 110 109 99 83 59 56 55 60 76 77 82 79 76 78 81 74 73 78 78 77 76 94 105 94
333 14 15 338 22 28 33 341 330 83 65 38 88 105 53 57 66 66 96 99 98 87 80 70 64 57 45 57 62 66 69 74 83 84 87 88 84 87 91 95 95 101 91 93
15 14 77 73 33 327 26 17 19 82 75 81 59 106 73 70 82 78 69 78 77 79 83 98 87 75 76 64 62 68 64 78 88 95 92 96 96 99 107 105 100 92 104 115
55 36 52 62 32 51 54 32 39 57 8 76 98 80 59 56 73 82 99 96 86 91 87 78 80 83 76 84 79 78 74 71 82 86 86 88 100 103 97 94 90 92 101 104
346 32 345 24 4 42 50 24 23 37 46 69 86 69 31 82 90 82 94 100 99 102 96 84 72 73 74 74 79 83 87 87 96 99 96 96 95 96 99 103 106 110 110 108
12 36 14 336 346 16 34 0 359 15 13 128 74 93 83 60 52 38 53 74 87 87 93 89 80 86 90 87 99 95 98 108 106 105 100 103 105 102 101 105 111 112 105 106
298 82 33 293 354 44 317 311 260 36 35 50 72 57 60 84 78 44 26 71 69 75 90 98 119 119 110 110 103 105 105 104 101 100 103 104 107 105 107 111 108 108 111 108
4 101 57 86 45 307 342 357 9 20 7 15 76 65 66 93 89 40 26 35 49 58 80 108 124 117 115 105 102 106 106 107 110 112 110 110 109 108 110 105 104 107 113 113
11 52 91 38 86 107 260 314 357 303 16 360 101 115 129 343 53 315 24 52 65 78 88 97 103 111 112 109 105 102 101 109 110 111 107 112 115 113 113 112 116 119 122 124
339 4 80 42 91 298 273 302 343 62 244 7 52 129 142 56 77 121 78 61 75 85 93 106 109 110 119 124 118 119 121 107 106 109 111 115 112 113 112 116 122 124 132 134
136 87 78 54 60 347 346 330 124 250 338 23 77 61 85 104 101 91 91 78 74 72 81 85 102 105 116 114 106 97 80 112 131 125 117 116 124 119 117 131 141 151 154 159
23 162 187 159 202 237 262 45 209 192 139 67 102 96 110 107 34 25 22 25 34 55 40 40 34 37 48 71 86 30 350 284 229 198 194 182 196 175 173 187 195 192 191 210
298 168 146 54 287 238 250 307 316 27 89 66 93 125 137 138 168 147 12 355 359 9 6 359 349 337 333 313 290 286 303 287 269 265 252 237 239 254 254 240 236 243 246 245
205 87 192 273 285 313 286 228 267 344 32 76 70 97 137 132 177 163 179 203 207 249 345 356 345 330 326 298 285 273 272 286 281 271 260 260 264 260 253 253 252 254 254 257
183 188 147 225 220 152 251 295 343 108 180 347 100 65 73 116 146 141 116 100 86 111 123 338 339 332 328 310 301 281 272 267 268 271 273 273 270 267 265 259 256 255 252 255